Main page
METAR-TAF:

METAR-TAF

Airports :

Kashmar, Iran

latitude: 35-16-14N, longitude: 58-28-24E, elevation: 1110 m

Current weather observation

The report was made 55 minutes ago, at 00:00 UTC
Wind 2 kt from the East/Northeast
Temperature 23°C
Humidity 38%
Pressure 1014 hPa

METAR: OIMQ 210000Z AUTO 06002KT //// // ////// 23/08 Q1014

Time: 05:25 (00:55 UTC)


TAF: missing

Weather observations and forecasts of more than 4000 airports (METAR and TAF reports).

The available stations are represented by yellow and red dots on the map.

Hover mouse over dot to see the name of the station.

Then click to see weather observations and forecasts.

To change the map : click on the green buttons with a black cross to zoom in, on the green button with a dash to zoom out, or on the green arrows for adjacent maps.


METAR-TAF: